Zurück zum Katalog

ARIANE 1 DEB

AktivSSO
NORAD 17478·DEBRIS·🇫🇷 France

Gestartet Feb 22, 1986 von Guiana Space Centre

Loading…

Nächste Überflüge (nächste 24 Stunden)

TLE

AktuellSource: Space-Track

Epoche: Sep 14, 2026, 10:24 UTC

1 17478U 86019HR  26257.43344910  .00000280  00000-0  12108-3 0  9996
2 17478  98.2965 245.5217 0039441 138.8110  15.0878 14.30951550 69712

Verfolge ARIANE 1 DEB in Echtzeit mit AllMySat

Download on the App Store